Flag for Germany Weather past 2 weeks in Sondershausen, Thuringia, Germany

Now
54 °F

Overcast.


Feels Like: 54 °F
Forecast: 46 / 64 °F
Wind: 3 mph from West

Location: Erfurt-Bindersleben

Current Time: May 23, 2015 at 9:35:45 AM

Latest Report: May 23, 2015 at 9:00 AM


Visibility: 31 mi

Pressure: 30.15 "Hg

Humidity: 76%

Dew point: 47 °F

Location of SondershausenLocation

Historic Weather in Sondershausen — Graph

°F

Sondershausen temperature yesterday

Maximum temperature yesterday: 64 °F (at 4:00 PM)
Minimum temperature yesterday: 35 °F (at 5:00 AM)
Average temperature yesterday: 52 °F

Past Weeks' High & Low Weather Summary

 TemperatureHumidityPressure
High80 °F (May 12, 3:00 PM)94% (May 16, 7:00 AM)30.38 "Hg (May 16, 7:00 AM)
Low35 °F (May 22, 5:00 AM)30% (May 19, 3:00 PM)29.65 "Hg (May 19, 5:00 AM)
Average55 °F61%30.07 "Hg
* Reported May 8 8:00 AM — May 23 8:00 AM, Sondershausen, Weather by CustomWeather, © 2015

Note: Actual official high and low records may vary slightly from our data, if they occured in-between our weather recording intervals... More about our weather records

Advertising

Sondershausen weather history for previous 24 hours

 ConditionsComfort  
Time TempWeatherWind HumidityBarometerVisibility
8:00 AM
Sat, May 23
52 °FOvercast.2 mph79%30.15 "Hg31 mi
7:00 AM52 °FOvercast.1 mph78%30.14 "Hg31 mi
6:00 AM51 °FOvercast.1 mph73%30.14 "Hg25 mi
5:00 AM50 °FOvercast.3 mph75%30.16 "Hg25 mi
4:00 AM51 °FOvercast.3 mph76%30.16 "Hg22 mi
3:00 AM52 °FOvercast.3 mph67%30.17 "Hg22 mi
2:00 AM54 °FOvercast.2 mph59%30.19 "Hg25 mi
1:00 AM55 °FOvercast.3 mph58%30.20 "Hg25 mi
12:00 AM55 °FOvercast.2 mph57%30.20 "Hg25 mi
11:00 PM
Fri, May 22
57 °FOvercast.1 mph51%30.20 "Hg25 mi
10:00 PM59 °FOvercast.2 mph47%30.20 "Hg31 mi
9:00 PM61 °FOvercast.1 mph44%30.19 "Hg37 mi
8:00 PM63 °FOvercast.2 mph42%30.19 "Hg37 mi
7:00 PM63 °FOvercast.2 mph39%30.19 "Hg37 mi
6:00 PM63 °FPartly sunny.2 mph42%30.20 "Hg37 mi
5:00 PM64 °FPartly sunny.3 mph37%30.21 "Hg37 mi
4:00 PM64 °FPartly sunny.3 mph38%30.23 "Hg37 mi
3:00 PM63 °FScattered clouds.2 mph35%30.24 "Hg37 mi
2:00 PM63 °FScattered clouds.2 mph40%30.26 "Hg37 mi
1:00 PM60 °FScattered clouds.3 mph40%30.29 "Hg37 mi
12:00 PM60 °FScattered clouds.1 mph43%30.30 "Hg43 mi
11:00 AM59 °FPassing clouds.2 mph45%30.32 "Hg43 mi
10:00 AM56 °FPassing clouds.2 mph55%30.33 "Hg37 mi
9:00 AM50 °FScattered clouds.3 mph71%30.35 "Hg37 mi
Weather by CustomWeather, © 2015

See weather overviewHow to use our weather pages